Location: Newark
(60.0000°N, 100.0000°E)
Time: 01:32:48
(UTC+00:00)

N. Korean satellite - Visible Passes

Search period start: 25 January 2021 00:00
Search period end: 04 February 2021 00:00
Orbit: 452 x 502 km, 97.2° (Epoch: 24 January)

Date Brightness Start Highest point End Pass type
(mag) Time Alt. Az. Time Alt. Az. Time Alt. Az.
25 Jan 9.4 10:43:31 10° SW 10:46:25 22° W 10:49:19 10° NW visible
25 Jan 9.3 21:59:23 10° NE 22:01:54 18° E 22:04:23 10° SE visible
25 Jan 6.4 23:32:08 10° N 23:35:36 62° WNW 23:39:00 10° SSW visible
26 Jan 8.4 10:16:16 10° SSW 10:19:39 37° W 10:23:01 10° NNW visible
26 Jan 9.9 21:33:56 10° ENE 21:34:59 11° E 21:36:02 10° E visible
26 Jan 6.6 23:05:29 10° NNE 23:08:59 74° ESE 23:12:26 10° S visible
27 Jan 7.9 00:39:29 10° N 00:41:57 18° NW 00:44:23 10° W visible
27 Jan 10.3 11:26:17 10° W 11:27:00 10° W 11:27:42 10° WNW visible
27 Jan 7.8 22:39:00 10° NNE 22:42:19 40° E 22:45:35 10° S visible
28 Jan 7.4 00:12:31 10° N 00:15:33 28° WNW 00:18:32 10° WSW visible
28 Jan 9.7 10:57:37 10° SW 11:00:05 17° W 11:02:32 10° NW visible
28 Jan 8.9 22:12:40 10° NE 22:15:32 24° E 22:18:22 10° SSE visible
28 Jan 6.7 23:45:43 10° N 23:49:05 46° WNW 23:52:22 10° SW visible
29 Jan 9.0 10:30:06 10° SSW 10:33:15 28° W 10:36:22 10° NNW visible
29 Jan 9.7 21:46:42 10° NE 21:48:40 14° E 21:50:37 10° ESE visible
29 Jan 6.3 23:19:01 10° NNE 23:22:31 82° WNW 23:25:56 10° SSW visible
30 Jan 7.1 22:52:27 10° NNE 22:55:51 54° E 22:59:13 10° S visible
31 Jan 7.7 00:26:12 10° N 00:28:56 22° WNW 00:31:40 10° WSW visible
31 Jan 9.9 11:11:57 10° WSW 11:13:44 13° W 11:15:31 10° NW visible
31 Jan 8.4 22:26:00 10° NNE 22:29:07 31° E 22:32:12 10° SSE visible
31 Jan 7.0 23:59:19 10° N 00:02:30 35° WNW 00:05:39 10° SW visible
01 Feb 9.5 10:44:02 10° SW 10:46:51 21° W 10:49:39 10° NW visible
01 Feb 9.3 21:59:47 10° NE 22:02:17 18° E 22:04:45 10° SE visible
01 Feb 6.4 23:32:33 10° N 23:35:58 61° WNW 23:39:20 10° SSW visible
02 Feb 8.4 10:16:44 10° SSW 10:20:03 36° W 10:23:21 10° NNW visible
02 Feb 9.9 21:34:20 10° ENE 21:35:21 11° E 21:36:23 10° ESE visible
02 Feb 6.6 23:05:53 10° NNE 23:09:21 75° ESE 23:12:45 10° S visible
03 Feb 8.0 00:39:54 10° N 00:42:17 18° NW 00:44:40 10° W visible
03 Feb 7.8 22:39:21 10° NNE 22:42:38 40° E 22:45:53 10° S visible
